| time (UTC) | temp F | wind direction | speed MPH | gust MPH | rain 1hr in | rain 24hr in | rain mn in | humidity % | barometer mb |
| 20260504081542 | 43 | 199 | 2.0 | 6.0 | 0.00 | 0.00 | 0.00 | 77 | 1007.2 |
| 20260504044537 | 42 | 178 | 2.0 | 7.0 | 0.00 | 0.01 | 0.00 | 62 | 1008.1 |
| 20260504043023 | 42 | 192 | 2.0 | 5.0 | 0.00 | 0.01 | 0.00 | 63 | 1008.1 |
| 20260504041519 | 41 | 200 | 2.0 | 6.0 | 0.00 | 0.01 | 0.00 | 66 | 1008.2 |
| 20260504040019 | 39 | 171 | 1.0 | 5.0 | 0.00 | 0.01 | 0.01 | 69 | 1008.2 |
| 20260504034514 | 38 | 203 | 2.0 | 4.0 | 0.00 | 0.01 | 0.01 | 72 | 1008.3 |
| 20260504033011 | 37 | 195 | 1.0 | 5.0 | 0.00 | 0.01 | 0.01 | 73 | 1008.3 |
| 20260504031509 | 37 | 163 | 2.0 | 4.0 | 0.00 | 0.01 | 0.01 | 74 | 1008.4 |
| 20260504030010 | 37 | 186 | 1.0 | 3.0 | 0.00 | 0.02 | 0.01 | 74 | 1008.4 |
| 20260504024510 | 39 | 188 | 1.0 | 3.0 | 0.00 | 0.02 | 0.01 | 71 | 1008.5 |
| 20260504023010 | 40 | 227 | 2.0 | 5.0 | 0.00 | 0.02 | 0.01 | 67 | 1008.6 |
| 20260504021509 | 40 | 228 | 2.0 | 6.0 | 0.00 | 0.02 | 0.01 | 68 | 1008.7 |
| 20260504020015 | 38 | 239 | 2.0 | 4.0 | 0.00 | 0.03 | 0.01 | 72 | 1008.7 |
| 20260504014509 | 38 | 212 | 1.0 | 3.0 | 0.00 | 0.03 | 0.01 | 74 | 1008.7 |
| 20260504013011 | 37 | 225 | 1.0 | 4.0 | 0.00 | 0.03 | 0.01 | 73 | 1008.8 |
| 20260504011509 | 37 | 257 | 0.0 | 1.0 | 0.00 | 0.03 | 0.01 | 75 | 1008.7 |
| 20260504010009 | 38 | 257 | 0.0 | 2.0 | 0.00 | 0.04 | 0.01 | 76 | 1008.5 |
| 20260504004517 | 39 | 256 | 0.0 | 3.0 | 0.00 | 0.04 | 0.01 | 75 | 1008.5 |
| 20260504003005 | 41 | 211 | 0.0 | 3.0 | 0.00 | 0.04 | 0.01 | 71 | 1008.4 |
| 20260504001505 | 43 | 190 | 0.0 | 2.0 | 0.00 | 0.04 | 0.01 | 68 | 1008.4 |
| 20260504000004 | 45 | 190 | 0.0 | 2.0 | 0.00 | 0.05 | 0.01 | 62 | 1008.3 |
| 20260503234505 | 46 | 190 | 0.0 | 2.0 | 0.00 | 0.05 | 0.01 | 58 | 1008.3 |
| 20260503233005 | 47 | 190 | 1.0 | 4.0 | 0.00 | 0.05 | 0.01 | 55 | 1008.2 |
| 20260503231506 | 47 | 232 | 0.0 | 3.0 | 0.00 | 0.05 | 0.01 | 57 | 1008.2 |
| 20260503230004 | 48 | 235 | 1.0 | 4.0 | 0.00 | 0.06 | 0.01 | 55 | 1008.2 |
| 20260503224503 | 48 | 263 | 2.0 | 5.0 | 0.00 | 0.06 | 0.01 | 55 | 1008.1 |
| 20260503223003 | 48 | 326 | 1.0 | 4.0 | 0.00 | 0.06 | 0.01 | 54 | 1008.1 |
| 20260503221503 | 48 | 334 | 1.0 | 3.0 | 0.00 | 0.06 | 0.01 | 54 | 1008.2 |
| 20260503220009 | 49 | 252 | 1.0 | 4.0 | 0.00 | 0.06 | 0.01 | 53 | 1008.1 |
| 20260503214502 | 49 | 343 | 0.0 | 4.0 | 0.00 | 0.06 | 0.01 | 53 | 1008.1 |
| 20260503213009 | 49 | 336 | 0.0 | 4.0 | 0.00 | 0.06 | 0.01 | 54 | 1008.2 |
| 20260503211506 | 49 | 326 | 2.0 | 4.0 | 0.00 | 0.06 | 0.01 | 53 | 1008.1 |
| 20260503210005 | 48 | 346 | 1.0 | 4.0 | 0.00 | 0.06 | 0.01 | 55 | 1008.1 |
| 20260503204505 | 48 | 331 | 2.0 | 9.0 | 0.00 | 0.06 | 0.01 | 54 | 1008.0 |
| 20260503203104 | 48 | 329 | 2.0 | 9.0 | 0.00 | 0.06 | 0.01 | 58 | 1008.2 |
| 20260503201559 | 47 | 341 | 4.0 | 10.0 | 0.00 | 0.06 | 0.01 | 55 | 1008.2 |
| 20260503194555 | 47 | 10 | 3.0 | 10.0 | 0.00 | 0.06 | 0.01 | 59 | 1008.8 |
| 20260503193101 | 46 | 323 | 2.0 | 12.0 | 0.00 | 0.06 | 0.01 | 59 | 1008.8 |
| 20260503191552 | 47 | 321 | 3.0 | 10.0 | 0.00 | 0.06 | 0.01 | 56 | 1008.8 |
| 20260503190054 | 48 | 349 | 3.0 | 8.0 | 0.00 | 0.06 | 0.01 | 59 | 1008.9 |
| 20260503184603 | 47 | 317 | 3.0 | 10.0 | 0.00 | 0.06 | 0.01 | 60 | 1009.1 |
| 20260503183058 | 47 | 323 | 3.0 | 9.0 | 0.00 | 0.06 | 0.01 | 60 | 1009.1 |
| 20260503181559 | 46 | 321 | 4.0 | 13.0 | 0.00 | 0.06 | 0.01 | 59 | 1009.2 |
| 20260503180047 | 46 | 304 | 1.0 | 8.0 | 0.00 | 0.06 | 0.01 | 59 | 1009.2 |
| 20260503174545 | 47 | 314 | 3.0 | 9.0 | 0.00 | 0.06 | 0.01 | 64 | 1009.4 |
| 20260503173056 | 45 | 317 | 4.0 | 12.0 | 0.00 | 0.06 | 0.01 | 63 | 1009.4 |
| 20260503171544 | 46 | 339 | 5.0 | 11.0 | 0.00 | 0.06 | 0.01 | 62 | 1009.5 |